Погода в Стерлитамаке

Погода в Стерлитамаке : погода сейчас, прогноз погоды и архив. Всё, что Вы хотите узнать о погоде в Стерлитамаке!

Хотите узнать прогноз погоды в Стерлитамаке? Тогда Вам сюда: Погода в Стерлитамаке

Поиск расширенной информации на нашем сайте:

Другие новости

Новости СМИ2

Главная страница сайта

Новости сайта

03.07.2017

Напоминаем, что на нашем специализированном сайте Метеоцентр.Азия вы можете получить высокодетализированные автоматические прогнозы погоды по пунктам России, СНГ и мира в авиационном формате (включающие направление и скорость ветра, видимость, явления погоды, количество и форму облачности, нижнюю и верхнюю границу облачности).

Рекомендуем: см тут аренда офиса в бп курский арма завод Нижний Сусальный пер. на выгодных условиях

Погода в Стерлитамаке - сегодня

Время (UTC), дата Ветер
(°,м/с) 
Видим.   Явления Облачность Т
(°С)
Тd
(°С)
f(%) Тe
(°С)
Pmin
(гПа)
dP
(гПа)
Po
(мм)
O2
(г/м3)
Тmin Tmax R s Состояние
почвы
09 20.02.18 200 (Ю) 4000 м  снег  10/0 средняя 
[As op]
-7.2 -10.4 78 -9  1018.9  -1.3  751  312           
12 20.02.18 220 (ЮЗ) 4000 м  снег  10/0 средняя 
[As op]
-6.8 -9.5 81 -8  1018.1  -0.8  750  311           
15 20.02.18 230 (ЮЗ) 4000 м  слаб. снег  10/0 средняя 
[As op]
-7.8 -10.2 83 -8  1017.4  -0.8  750  312    -6.7     
18 20.02.18 240 (ЮЗ) 10 км  {снег}  9/0 средняя 
[Ac As]
-9.3 -11.6 83 -9  1017.1  -0.8  749  314           
21 20.02.18 290 (З) 10 км    ясно 
-15 -17.4 82 -15  1017.3  -0.2  749  321           
00 21.02.18 290 (З) 10 км    3/3 1000 м 
[Sc]
-19.1 -22.1 77 -19  1018.2  0.6  750  326           
03 21.02.18 230 (ЮЗ) 4000 м  слаб. снег  9/0 средняя 
[As op]
-15.3 -18.1 79 -15  1018.2  0.3  750  322  -19.2    0.3  11  равномерный
сухой снег
100% 
06 21.02.18 220 (ЮЗ) 4000 м  слаб. снег  10/0 средняя 
[As op]
-10.3 -13.1 80 -10  1018.7  0.8  751  315           
09 21.02.18 220 (ЮЗ) 4000 м  слаб. снег  10/0 средняя 
[As op]
-6.1 -10.2 73 -9  1018.6  0.2  751  310           
12 21.02.18 220 (ЮЗ) 20000 м  {снег}  8/0 средняя, верхняя 
[Ac trans|Ci sp]
-6 -11.3 66 -9  1019.1  0.5  751  310           
15 21.02.18 200 (Ю) 10 км    9/0 средняя 
[Ac trans]
-8.4 -11.9 76 -11  1020  0.7  752  314    -5.3  0.6     
18 21.02.18 210 (ЮЗ) 10 км    9/3 600 м средняя 
[Sc|Ac trans]
-8 -11.2 78 -11  1020.4  0.4  752  313           
21 21.02.18 210 (ЮЗ) 10 км    10/0 средняя 
[Ac As]
-10.6 -13.6 79 -12  1021  0.5  752  317           
00 22.02.18 230 (ЮЗ) 10 км    10/0 средняя 
[Ac As]
-13 -16.1 78 -13  1021.9  0.7  753  320           
03 22.02.18 210 (ЮЗ) 10 км    9/0 средняя, верхняя 
[Ac trans|Ci fib]
-14.6 -17.5 79 -17  1022.4  0.4  753  322  -14.6      11  равномерный
сухой снег
100% 
06 22.02.18 210 (ЮЗ) 20000 м    8/0 верхняя 
[Ci sp]
-13.1 -17.4 70 -15  1023.2  0.8  754  320  -15.7         
09 22.02.18 220 (ЮЗ) 20000 м    9/0 верхняя 
[Ci fib]
-9.4 -16.2 58 -12  1022.9  754  316           
12 22.02.18 230 (ЮЗ) 20000 м    3/0 верхняя 
[Ci fib]
-9.6 -16.2 59 -13  1023.1  0.2  754  316           
15 22.02.18 тихо ()   10 км    ясно 
-14.5 -18.4 72 -15  1023.8  0.3  754  322    -8.8       
18 22.02.18 200 (Ю) 10 км    ясно 
-17.9 -20.6 79 -18  1024.8  0.4  755  327           
21 22.02.18 тихо ()   10 км    ясно 
-22 -25.4 74 -22  1025.5  0.4  755  333           
00 23.02.18 250 (З) 4000 м  слаб. снег  10/0 средняя 
[As op]
-18.8 -22 76 -19  1025.2  0.1  755  328           
03 23.02.18 290 (З) 10 км  {снег}  3/0 средняя 
[As trans]
-24.5 -28.3 71 -25  1025.4  -0.2  755  336  -24.5    0.2  12  равномерный
сухой снег
100% 
06 23.02.18 230 (ЮЗ) 20000 м    ясно 
-19.5 -22.9 74 -20  1025.6  0.6  755  329           
09 23.02.18 280 (З) 20000 м    ясно 
-13.5 -19.6 60 -16  1025.1  0.1  755  322           
Время (UTC), дата Ветер
(°,м/с) 
Видим.   Явления Облачность Т
(°С)
Тd
(°С)
f(%) Тe
(°С)
Pmin
(гПа)
dP
(гПа)
Po
(мм)
O2
(г/м3)
Тmin Tmax R s Состояние
почвы

Для получения пояснительной информации подведите курсор к названию столбца.

ПОГОДА в Стерлитамаке - архив

Всё, что Вы хотите узнать о погоде в Стерлитамаке - удобно и подробно!

Выберите нужную дату (начиная с 1 января 2015* года) и нажмите кнопку "Найти".
Будут отображены архивные сводки погоды по пункту Стерлитамак, начиная с указанной даты.


Отображать данные в формате CSV (для использования в таблицах Excel)


Внимание! Наш архив погоды предназначен исключительно для личного некоммерческого использования в познавательных целях. Если Вам необходимы официальные справки о состоянии погоды (для производственных, юридических, коммерческих и т.п. целей), обращайтесь в органы Росгидромета.

*Примечание: данная дата относится к архиву по метеостанциям СССР (Россия, СНГ, Балтия).
Архив по метеостанциям Зарубежной Европы и Азии (кроме Китая) хранится 10 дней, по другим регионам земного шара (Китай, Африка, Америка, Австралия, Океания) - 1 день.

Стерлитамак - район местоположения метеостанции


Название, широта, долгота, высота метеостанции:
Стерлитамак 53.6°ш. 56°д. 137 м над ур. моря [Российская Федерация]

Дополнительная информация

В oтличие oт бoльшинства пoгoдных сайтoв мы публикуем пoдрoбную метеoинфoрмацию в детальнoм прoфессиoнальнoм фoрмате.

Характеристики температуры и влажнoсти вoздуха измеряются на высoте 2 м в тени вдали oт зданий и деревьев.
Скoрoсть ветра измеряется на высoте 10 м (на урoвне рoста челoвека скoрoсть ветра ниже в 1.5-2 раза). Если метеoстанция нахoдится в гoрoде или в лесу, тo скoрoсть ветра занижена на 2-4 м/с пo сравнению с oткрытым местoм. Скoрoсть ветра над акватoриями крупных рек и oзёр, а также на вершинах хoлмoв на 2-5 м/с выше, чем в oбычных услoвиях.
Атмoсфернoе давление в разных тoчках местнoсти мoжет значительнo oтличаться oт давления на метеoстанции, в зависимoсти oт услoвий рельефа (при пoдъёме на 10 м давление пoнижается примернo на 1 мм рт.ст.).